TimeCST,TemperatureF,Dew PointF,Humidity,Sea Level PressureIn,VisibilityMPH,Wind Direction,Wind SpeedMPH,Gust SpeedMPH,PrecipitationIn,Events,Conditions,WindDirDegrees,DateUTC
12:53 AM,41.0,39.0,93,30.09,4.0,Calm,Calm,-,N/A,,Overcast,0,2012-11-06 06:53:00
1:53 AM,41.0,37.9,89,30.09,5.0,WNW,3.5,-,N/A,,Overcast,300,2012-11-06 07:53:00
2:33 AM,41.0,37.4,87,30.07,8.0,WNW,3.5,-,N/A,,Overcast,290,2012-11-06 08:33:00
2:53 AM,41.0,37.0,86,30.07,9.0,Calm,Calm,-,N/A,,Overcast,0,2012-11-06 08:53:00
3:53 AM,41.0,37.0,86,30.07,8.0,Calm,Calm,-,N/A,,Overcast,0,2012-11-06 09:53:00
4:53 AM,41.0,37.0,86,30.06,7.0,West,5.8,-,N/A,,Overcast,270,2012-11-06 10:53:00
5:53 AM,41.0,36.0,82,30.04,8.0,SW,4.6,-,N/A,,Overcast,230,2012-11-06 11:53:00
6:53 AM,39.9,36.0,86,30.05,8.0,SW,6.9,-,N/A,,Overcast,220,2012-11-06 12:53:00
7:53 AM,42.1,37.0,82,30.06,7.0,WSW,9.2,-,N/A,,Mostly Cloudy,240,2012-11-06 13:53:00
8:53 AM,44.1,39.0,82,30.04,8.0,WSW,9.2,-,N/A,,Mostly Cloudy,240,2012-11-06 14:53:00
9:53 AM,48.0,39.0,71,30.04,10.0,WSW,15.0,23.0,N/A,,Clear,250,2012-11-06 15:53:00
10:11 AM,48.2,39.2,71,30.04,10.0,West,12.7,20.7,N/A,,Partly Cloudy,280,2012-11-06 16:11:00
10:53 AM,51.1,39.0,63,30.03,10.0,NW,13.8,20.7,N/A,,Partly Cloudy,310,2012-11-06 16:53:00
11:53 AM,55.0,37.0,51,30.02,10.0,North,13.8,21.9,N/A,,Clear,350,2012-11-06 17:53:00
12:53 PM,55.9,35.1,45,29.99,10.0,NW,11.5,24.2,N/A,,Clear,310,2012-11-06 18:53:00
1:53 PM,57.9,28.9,33,29.98,10.0,NNW,16.1,31.1,N/A,,Clear,330,2012-11-06 19:53:00
2:53 PM,59.0,27.0,29,29.98,10.0,NW,19.6,31.1,N/A,,Clear,310,2012-11-06 20:53:00
3:53 PM,57.9,27.0,31,30.00,10.0,NNW,18.4,25.3,N/A,,Clear,340,2012-11-06 21:53:00
4:53 PM,55.9,26.1,32,30.00,10.0,NNW,16.1,24.2,N/A,,Clear,330,2012-11-06 22:53:00
5:53 PM,52.0,27.0,38,30.02,10.0,NW,6.9,-,N/A,,Clear,320,2012-11-06 23:53:00
6:53 PM,48.9,27.0,43,30.05,10.0,NW,5.8,-,N/A,,Clear,320,2012-11-07 00:53:00
7:53 PM,48.9,27.0,43,30.06,10.0,NW,6.9,-,N/A,,Clear,320,2012-11-07 01:53:00
8:53 PM,46.9,27.0,46,30.07,10.0,NW,5.8,-,N/A,,Clear,320,2012-11-07 02:53:00
9:53 PM,45.0,27.0,49,30.07,10.0,WNW,4.6,-,N/A,,Clear,290,2012-11-07 03:53:00
10:53 PM,45.0,27.0,49,30.07,10.0,NW,5.8,-,N/A,,Clear,310,2012-11-07 04:53:00
11:53 PM,44.1,28.0,53,30.06,10.0,NW,5.8,-,N/A,,Clear,310,2012-11-07 05:53:00